Weather in Gimry

Russia / Republic of Dagestan     42°45′29″N   46°50′28″E
temp.,
°C
wind,
m/s
gust,
m/s
humid.,
%
clouds,
%
prec.,
mm/h
press.,
hPa
HPBL,
m
20 june, sun
sun2000:00+16sw327641 0.0 101621
03:00+15sw33550 0.0 101622
06:00+17sw33580 0.0 101668
09:00+24s223689 0.0 1013419
12:00+27se223143 0.0 1012943
15:00+28ene32357 0.0 10111217
18:00+25e33601 0.0 1012124
21:00+19ssw22680 0.0 101411
21 june, mon
mon2100:00+17wsw33550 0.0 101523
03:00+16wsw33520 0.0 101526
06:00+17sw33600 0.0 101576
09:00+24se22380 0.0 1013505
12:00+27e22330 0.0 10121060
15:00+28e43390 0.0 10101111
18:00+25ese33580 0.0 1011118
21:00+19sw22650 0.0 101312
22 june, tue
tue2200:00+17wsw33520 0.0 101424
03:00+16wsw33460 0.0 101425
06:00+18sw33520 0.0 101462
09:00+24ese22340 0.0 1013483
12:00+28e22340 0.0 1012992
15:00+28e43350 0.0 1011981
18:00+25e23510 0.0 101281
21:00+19ssw22590 0.0 101411
23 june, wed
wed2300:00+17sw33530 0.0 101429
03:00+16wsw33360 0.0 101528
06:00+18wsw22460 0.0 101546
09:00+23e223338 0.0 1015454
12:00+26ene32330 0.0 1013965
15:00+27ene22370 0.0 1012924
18:00+25ene22550 0.0 101395
21:00+19wnw01700 0.0 101511
24 june, thu
thu2400:00+18sw22710 0.0 101611
03:00+17wsw32670 0.0 101618
06:00+18wsw33570 0.0 101672
09:00+24ese12380 0.0 1014496
12:00+27ene32410 0.0 10131089
15:00+27ne32370 0.0 10121241
18:00+24ne23520 0.0 1013135
21:00+18w11640 0.2 101611